Weather History for Litchfield, MN

Change the Weather History Date:

Sunday, April 17, 2011

  Actual Average Record
Temperature  
Mean Temperature 38 °F -  
Max Temperature 46 °F 61 °F 86 °F (1985)
Min Temperature 30 °F 35 °F 16 °F (1953)
Degree Days  
Heating Degree Days 27    
Moisture  
Dew Point 23 °F    
Average Humidity 57    
Maximum Humidity 93    
Minimum Humidity 37    
Precipitation  
Precipitation 0.00 in - - ()
Sea Level Pressure  
Sea Level Pressure 29.82 in    
Wind  
Wind Speed 12 mph (NNW)    
Max Wind Speed 18 mph    
Max Gust Speed 28 mph    
Visibility 10 miles    
Events      
Averages and records for this station are not official NWS values.
T = Trace of Precipitation, MM = Missing Value Source: NWS Daily Summary

Daily Weather History Graph

Daily Weather History Graph

Search for Another Location

Airport:

Trip Planner

Search our weather history database for the weather conditions in past years. The results will help you decide how hot, cold, wet, or windy it might be!

Date:

Astronomy

Apr. 17, 2011 Rise Set
Actual Time 6:30 AM CDT 8:05 PM CDT
Civil Twilight 5:59 AM CDT 8:36 PM CDT
Nautical Twilight 5:21 AM CDT 9:14 PM CDT
Astronomical Twilight 4:41 AM CDT 9:55 PM CDT
Moon 8:08 PM CDT (4/17) 5:47 AM CDT (4/17)
Length of Visible Light 14h 37m
Length of Day
13h 35m
Full, 100% of the Moon is Illuminated
Apr 17
Full
Apr 17
Full
Apr 24
Last Quarter
May 3
New
May 10
First Quarter

Hourly Weather History & Observations

Time (CDT) Temp. Windchill Dew Point Humidity Pressure Visibility Wind Dir Wind Speed Gust Speed Precip Events Conditions
12:12 AM 33.8 °F 22.8 °F 24.8 °F 70% 29.80 in 10.0 mi WNW 18.4 mph 27.6 mph N/A   Overcast
12:33 AM 33.8 °F 23.2 °F 23.0 °F 65% 29.80 in 10.0 mi NW 17.3 mph 27.6 mph N/A   Overcast
12:53 AM 33.8 °F 23.9 °F 23.0 °F 65% 29.80 in 10.0 mi WNW 15.0 mph 27.6 mph N/A   Overcast
1:13 AM 33.8 °F 23.5 °F 23.0 °F 65% 29.80 in 10.0 mi NW 16.1 mph 24.2 mph N/A   Overcast
1:33 AM 33.8 °F 24.8 °F 23.0 °F 65% 29.80 in 10.0 mi NW 12.7 mph 27.6 mph N/A   Overcast
1:53 AM 33.8 °F 25.8 °F 24.8 °F 70% 29.80 in 10.0 mi WNW 10.4 mph 20.7 mph N/A   Mostly Cloudy
2:13 AM 32.0 °F 21.6 °F 23.0 °F 69% 29.80 in 10.0 mi WNW 15.0 mph 23.0 mph N/A   Scattered Clouds
2:33 AM 33.8 °F 24.3 °F 24.8 °F 70% 29.80 in 10.0 mi WNW 13.8 mph 21.9 mph N/A   Overcast
2:53 AM 33.8 °F 24.3 °F 24.8 °F 70% 29.80 in 10.0 mi WNW 13.8 mph 19.6 mph N/A   Mostly Cloudy
3:13 AM 33.8 °F 25.3 °F 24.8 °F 70% 29.80 in 10.0 mi WNW 11.5 mph 17.3 mph N/A   Overcast
3:33 AM 33.8 °F 23.5 °F 24.8 °F 70% 29.81 in 10.0 mi WNW 16.1 mph 24.2 mph N/A   Overcast
3:53 AM 33.8 °F 24.3 °F 24.8 °F 70% 29.80 in 10.0 mi NW 13.8 mph 19.6 mph N/A   Overcast
4:13 AM 33.8 °F 24.3 °F 24.8 °F 70% 29.80 in 10.0 mi NW 13.8 mph 19.6 mph N/A   Overcast
4:33 AM 33.8 °F 23.9 °F 24.8 °F 70% 29.82 in 10.0 mi WNW 15.0 mph 23.0 mph N/A   Overcast
4:53 AM 33.8 °F 25.8 °F 24.8 °F 70% 29.82 in 10.0 mi WNW 10.4 mph 20.7 mph N/A   Overcast
5:13 AM 32.0 °F 23.0 °F 26.6 °F 80% 29.82 in 10.0 mi WNW 11.5 mph 17.3 mph N/A   Mostly Cloudy
5:33 AM 32.0 °F 24.2 °F 26.6 °F 80% 29.82 in 10.0 mi WNW 9.2 mph - N/A   Scattered Clouds
5:53 AM 30.2 °F 21.9 °F 26.6 °F 86% 29.81 in 10.0 mi WNW 9.2 mph 18.4 mph N/A   Clear
6:13 AM 30.2 °F 21.9 °F 26.6 °F 86% 29.82 in 10.0 mi NW 9.2 mph - N/A   Clear
6:32 AM 30.2 °F 21.9 °F 26.6 °F 86% 29.83 in 10.0 mi NW 9.2 mph - N/A   Mostly Cloudy
6:53 AM 30.2 °F 21.3 °F 26.6 °F 86% 29.83 in 10.0 mi WNW 10.4 mph - N/A   Scattered Clouds
7:13 AM 30.2 °F 22.6 °F 28.4 °F 93% 29.84 in 10.0 mi WNW 8.1 mph - N/A   Scattered Clouds
7:33 AM 32.0 °F 22.5 °F 28.4 °F 87% 29.84 in 10.0 mi WNW 12.7 mph - N/A   Clear
8:13 AM 33.8 °F 25.3 °F 28.4 °F 81% 29.85 in 10.0 mi WNW 11.5 mph 16.1 mph N/A   Clear
8:33 AM 33.8 °F 24.8 °F 26.6 °F 75% 29.85 in 10.0 mi NW 12.7 mph - N/A   Clear
8:53 AM 33.8 °F 24.8 °F 26.6 °F 75% 29.85 in 10.0 mi NW 12.7 mph 20.7 mph N/A   Scattered Clouds
9:13 AM 33.8 °F 24.8 °F 26.6 °F 75% 29.85 in 10.0 mi NW 12.7 mph 19.6 mph N/A   Mostly Cloudy
9:33 AM 35.6 °F 25.5 °F 26.6 °F 70% 29.85 in 10.0 mi NNW 17.3 mph - N/A   Mostly Cloudy
9:53 AM 35.6 °F 26.2 °F 24.8 °F 65% 29.85 in 10.0 mi NNW 15.0 mph 19.6 mph N/A   Scattered Clouds
10:13 AM 37.4 °F 27.5 °F 21.2 °F 52% 29.85 in 10.0 mi NNW 18.4 mph 24.2 mph N/A   Clear
10:33 AM 37.4 °F 29.3 °F 21.2 °F 52% 29.85 in 10.0 mi North 12.7 mph - N/A   Clear
10:52 AM 37.4 °F 30.3 °F 21.2 °F 52% 29.85 in 10.0 mi NNW 10.4 mph 16.1 mph N/A   Clear
11:13 AM 37.4 °F 30.3 °F 21.2 °F 52% 29.85 in 10.0 mi NNW 10.4 mph - N/A   Clear
11:33 AM 39.2 °F 33.0 °F 21.2 °F 49% 29.85 in 10.0 mi NW 9.2 mph - N/A   Clear
11:53 AM 39.2 °F 34.2 °F 21.2 °F 49% 29.85 in 10.0 mi NW 6.9 mph - N/A   Clear
12:13 PM 39.2 °F 33.6 °F 21.2 °F 49% 29.84 in 10.0 mi North 8.1 mph - N/A   Clear
12:33 PM 41.0 °F 33.5 °F 21.2 °F 45% 29.84 in 10.0 mi North 13.8 mph - N/A   Clear
12:53 PM 41.0 °F 37.1 °F 19.4 °F 42% 29.84 in 10.0 mi NW 5.8 mph 9.2 mph N/A   Clear
1:13 PM 42.8 °F 37.0 °F 21.2 °F 42% 29.83 in 10.0 mi North 10.4 mph 18.4 mph N/A   Clear
1:33 PM 42.8 °F 39.3 °F 21.2 °F 42% 29.83 in 10.0 mi NNW 5.8 mph 9.2 mph N/A   Clear
1:53 PM 44.6 °F 39.2 °F 19.4 °F 37% 29.82 in 10.0 mi North 10.4 mph - N/A   Clear
2:13 PM 44.6 °F 41.4 °F 19.4 °F 37% 29.82 in 10.0 mi NNE 5.8 mph - N/A   Clear
2:33 PM 44.6 °F 42.2 °F 19.4 °F 37% 29.81 in 10.0 mi North 4.6 mph - N/A   Clear
2:53 PM 44.6 °F 42.2 °F 21.2 °F 39% 29.80 in 10.0 mi East 4.6 mph - N/A   Clear
3:13 PM 44.6 °F - 19.4 °F 37% 29.79 in 10.0 mi Calm Calm - N/A   Clear
3:34 PM 44.6 °F 41.4 °F 19.4 °F 37% 29.79 in 10.0 mi NNE 5.8 mph - N/A   Clear
3:53 PM 44.6 °F 40.2 °F 19.4 °F 37% 29.79 in 10.0 mi ENE 8.1 mph - N/A   Clear
4:32 PM 46.4 °F 43.5 °F 21.2 °F 37% 29.78 in 10.0 mi East 5.8 mph - N/A   Clear
4:53 PM 44.6 °F 43.1 °F 19.4 °F 37% 29.78 in 10.0 mi ENE 3.5 mph - N/A   Clear
5:13 PM 44.6 °F 40.7 °F 21.2 °F 39% 29.79 in 10.0 mi NE 6.9 mph - N/A   Clear
5:33 PM 44.6 °F 41.4 °F 19.4 °F 37% 29.79 in 10.0 mi ENE 5.8 mph - N/A   Clear
5:53 PM 44.6 °F 41.4 °F 19.4 °F 37% 29.80 in 10.0 mi NE 5.8 mph - N/A   Clear
6:13 PM 44.6 °F 42.2 °F 19.4 °F 37% 29.80 in 10.0 mi NE 4.6 mph - N/A   Scattered Clouds
6:33 PM 44.6 °F 43.1 °F 19.4 °F 37% 29.80 in 10.0 mi NE 3.5 mph - N/A   Scattered Clouds
6:53 PM 42.8 °F 40.1 °F 21.2 °F 42% 29.81 in 10.0 mi NE 4.6 mph - N/A   Mostly Cloudy
7:13 PM 42.8 °F 41.1 °F 21.2 °F 42% 29.82 in 10.0 mi ENE 3.5 mph - N/A   Overcast
7:33 PM 42.8 °F 41.1 °F 21.2 °F 42% 29.82 in 10.0 mi NNE 3.5 mph - N/A   Mostly Cloudy
7:53 PM 42.8 °F 38.6 °F 21.2 °F 42% 29.82 in 10.0 mi NNE 6.9 mph - N/A   Scattered Clouds
8:13 PM 42.8 °F 40.1 °F 23.0 °F 46% 29.82 in 10.0 mi NE 4.6 mph - N/A   Mostly Cloudy
8:33 PM 42.8 °F 41.1 °F 21.2 °F 42% 29.83 in 10.0 mi NE 3.5 mph - N/A   Overcast
8:53 PM 41.0 °F 39.0 °F 24.8 °F 53% 29.85 in 10.0 mi NE 3.5 mph - N/A   Overcast
9:12 PM 41.0 °F - 24.8 °F 53% 29.87 in 10.0 mi Calm Calm - N/A   Overcast
9:33 PM 41.0 °F 39.0 °F 24.8 °F 53% 29.88 in 10.0 mi NNE 3.5 mph - N/A   Overcast
9:53 PM 41.0 °F 38.0 °F 24.8 °F 53% 29.89 in 10.0 mi NE 4.6 mph - N/A   Overcast
10:13 PM 41.0 °F 38.0 °F 26.6 °F 57% 29.89 in 10.0 mi NE 4.6 mph - N/A   Mostly Cloudy
10:33 PM 39.2 °F 34.2 °F 24.8 °F 56% 29.89 in 10.0 mi ENE 6.9 mph - N/A   Mostly Cloudy
10:53 PM 39.2 °F 35.9 °F 24.8 °F 56% 29.89 in 10.0 mi ENE 4.6 mph - N/A   Mostly Cloudy
11:13 PM 39.2 °F 35.0 °F 24.8 °F 56% 29.88 in 10.0 mi NE 5.8 mph - N/A   Scattered Clouds
11:33 PM 39.2 °F 35.9 °F 24.8 °F 56% 29.88 in 10.0 mi ENE 4.6 mph - N/A   Mostly Cloudy
11:53 PM 39.2 °F 37.0 °F 23.0 °F 52% 29.87 in 10.0 mi ENE 3.5 mph - N/A   Overcast